#timestamp,LO_Frequency,Hit,StdDev 
1582084815.4,286047001.5,N
1582084835.2,286047001.5,N
1582084855.0,286047006.0,Y
1582084855.9,286047006.0,P
1582084875.8,286047002.2,N
1582084895.6,286047001.6,N
1582084915.5,286047002.2,N
1582084935.3,286047002.3,N
1582084955.1,286047001.5,N
1582084975.9,286047003.5,N
1582084995.7,286047004.0,N
1582085015.5,286047001.4,N
1582085035.4,286047002.2,N
1582085055.2,286046998.6,N
1582085075.1,286046997.0,N
1582085076.0,286046997.0,N
1582085095.8,286047000.1,N
1582085115.6,286047000.2,N
1582085135.5,286046999.8,N
1582085155.3,286047001.5,N
1582085175.2,286047003.9,N
1582085195.9,286047001.4,N
1582085215.7,286047004.2,N
1582085235.6,286047003.4,N
1582085255.4,286047004.2,N
1582085275.3,286047001.9,N
1582085295.1,286047001.7,N
1582085296.0,286047001.7,N
1582085315.8,286047001.9,N
1582085335.7,286047000.5,N
1582085355.5,286047000.3,N
1582085375.4,286047001.2,N
1582085395.2,286046996.7,N
1582085415.0,286047001.2,N
1582085415.9,286047001.2,N
1582085435.8,286047002.2,N
1582085455.6,286047003.8,N
1582085475.4,286047003.1,N
1582085495.3,286047002.7,N
1582085545.1,286047001.8,E
1582085555.1,286047001.9,N
1582085556.0,286047001.9,P
1582085575.8,286047002.5,P
1582085595.6,286047002.5,Y
1582085615.5,286046998.7,P
1582085635.3,286046998.4,N
1582085655.2,286047001.1,N
1582085675.9,286046999.1,N
1582085695.7,286046996.5,N
1582085715.6,286046996.9,N
1582085735.4,286046996.8,N
1582085755.2,286046996.9,N
1582085775.1,286046999.1,N
1582085776.0,286046999.1,N
1582085795.8,286046999.3,N
1582085815.7,286046996.8,N
1582085835.5,286046998.0,N
1582085855.3,286046997.3,N
1582085875.2,286046998.3,N
1582085895.0,286046998.5,N
1582085895.9,286046998.5,N
1582085915.8,286046998.5,N
1582085935.6,286046998.5,N
1582085955.4,286046996.9,N
1582085975.3,286046998.4,N
1582085995.1,286046998.5,N
1582086015.9,286047000.6,N
1582086035.7,286047001.1,N
1582086055.5,286046998.5,N
1582086075.4,286046999.9,N
1582086095.2,286047000.5,N
1582086115.0,286046996.5,N
1582086116.0,286046996.5,N
1582086135.8,286046996.6,N
1582086155.6,286046999.3,N
1582086175.5,286047001.2,N
1582086195.3,286046998.4,N
1582086215.1,286046999.6,N
1582086235.9,286046999.5,N
1582086255.7,286047000.8,N
1582086275.6,286046999.9,N
1582086295.4,286047000.8,N
1582086315.2,286047000.8,N
1582086335.1,286047000.2,N
1582086336.0,286047000.2,N
1582086355.8,286047002.8,N
1582086375.7,286047002.0,N
1582086395.5,286046999.8,N
1582086415.3,286047000.8,N
1582086435.2,286047000.3,N
1582086455.0,286047002.3,N
1582086455.9,286047002.3,N
1582086475.8,286047000.5,N
1582086495.6,286047002.5,N
1582086515.4,286047000.3,N
1582086535.3,286047002.5,N
1582086555.1,286047002.0,N
1582086575.9,286047004.1,N
1582086595.7,286047000.2,N
1582086615.5,286047002.4,N
1582086635.4,286047000.1,N
1582086655.2,286047002.3,N
1582086675.0,286047004.3,N
1582086675.9,286047004.3,N
1582086695.8,286047002.4,N
1582086715.6,286047002.3,N
1582086735.5,286047000.0,N
1582086755.3,286046998.7,N
1582086775.1,286046995.6,Y
1582086795.9,286046995.4,P
1582086815.7,286046997.7,N
1582086835.6,286046995.0,N
1582086855.4,286046996.9,N
1582086875.2,286046999.1,N
1582086895.1,286047000.6,N
1582086896.0,286047000.6,N
1582086915.8,286046998.1,N
1582086935.6,286047001.0,N
1582086955.5,286046998.7,N
1582086975.3,286046996.6,N
1582086995.2,286046996.0,N
1582087015.9,286046993.7,N
1582087035.7,286046995.4,N
1582087055.6,286046996.7,N
1582087075.4,286046997.3,N
1582087095.2,286046996.7,N
1582087115.1,286046997.6,N
1582087116.0,286046997.6,N
1582087135.8,286046997.8,N
1582087155.7,286046999.3,N
1582087175.5,286046995.9,N
1582087195.3,286046993.5,Y
1582087215.2,286046998.8,P
1582087235.0,286047002.8,P
1582087235.9,286047002.8,N
1582087255.8,286047004.4,N
1582087275.6,286047004.1,N
1582087295.4,286047003.0,N
1582087315.3,286047002.9,N
1582087335.1,286047003.2,N
1582087355.8,286047003.7,N
1582087375.7,286047003.9,N
1582087395.5,286047005.9,N
1582087415.4,286047001.5,N
1582087435.2,286047002.9,N
1582087455.0,286047003.8,N
1582087455.9,286047003.8,N
1582087475.8,286047001.7,N
1582087495.6,286047002.8,N
1582087515.5,286047002.3,N
1582087535.3,286047002.7,N
1582087555.1,286047001.4,N
1582087575.9,286047002.9,N
1582087595.7,286047004.2,N
1582087615.6,286047001.7,N
1582087635.4,286047001.6,N
1582087655.2,286047002.4,N
1582087675.1,286047003.9,N
1582087676.0,286047003.9,N
1582087695.8,286047002.2,N
1582087715.6,286046999.8,N
1582087735.5,286047000.4,N
1582087755.3,286046998.4,N
1582087775.2,286047002.7,N
1582087795.9,286047000.1,N
1582087815.7,286047001.0,N
1582087835.6,286047001.5,N
1582087855.4,286047003.5,N
1582087875.3,286047001.6,N
1582087895.1,286047002.8,N
1582087896.0,286047002.8,N
1582087915.8,286046998.7,N
1582087935.7,286047000.7,N
1582087955.5,286047000.6,N
1582087975.3,286047000.1,N
1582087995.2,286047002.3,N
1582088015.0,286047001.6,N
1582088015.9,286047001.6,N
1582088035.8,286047002.7,N
1582088055.6,286047003.8,N
1582088075.4,286047006.0,Y
1582088095.3,286047002.3,P
1582088145.2,286047001.1,E
1582088155.1,286047001.1,N
1582088156.0,286047001.1,P
1582088175.8,286047000.4,P
1582088195.7,286046999.2,N
1582088215.5,286046999.5,N
1582088235.3,286046996.9,Y
1582088255.2,286046998.3,P
1582088275.0,286046996.5,P
1582088275.9,286046996.5,N
1582088295.8,286046996.9,N
1582088315.6,286046999.0,N
1582088335.4,286047000.4,N
1582088355.3,286046999.6,N
1582088375.1,286046999.6,N
1582088395.9,286046998.7,N
